Data for 11/02/2017

Time Sea-Level Adjusted Pressure Absolute Pressure Temperature Relative Humidity Dew Point   
(mb) (inHg) (mb) (inHg) (C) (F) (%) (C) (F)
00:05 1012 29.88 841 24.83 -3.8 25.1 91 -5.1 22.9
00:10 1012 29.88 842 24.86 -3.7 25.3 91 -4.9 23.1
00:15 1012 29.88 842 24.86 -3.6 25.4 91 -4.9 23.1
00:20 1012 29.88 842 24.86 -3.6 25.5 91 -4.9 23.2
00:25 1012 29.88 842 24.86 -3.5 25.7 91 -4.8 23.3
00:30 1012 29.88 842 24.86 -3.5 25.7 90 -4.8 23.3
00:35 1012 29.88 842 24.86 -3.5 25.7 90 -5 23
00:40 1012 29.88 842 24.86 -3.6 25.5 90 -5.1 22.9
00:45 1013 29.91 842 24.86 -3.6 25.5 90 -5.1 22.8
00:50 1013 29.91 842 24.86 -3.6 25.6 89 -5.1 22.9
00:55 1013 29.91 842 24.86 -3.6 25.6 89 -5.1 22.8
01:00 1013 29.91 842 24.86 -3.6 25.5 89 -5.2 22.6
01:05 1013 29.91 842 24.86 -3.6 25.5 89 -5.2 22.6
01:10 1013 29.91 842 24.86 -3.7 25.4 88 -5.4 22.3
01:15 1013 29.91 842 24.86 -3.8 25.2 88 -5.4 22.2
01:20 1013 29.91 842 24.86 -3.7 25.3 88 -5.4 22.3
01:25 1013 29.91 842 24.86 -3.7 25.3 88 -5.4 22.4
01:30 1013 29.91 842 24.86 -3.7 25.3 88 -5.4 22.2
01:35 1013 29.91 842 24.86 -3.8 25.2 88 -5.5 22.1
01:40 1013 29.91 842 24.86 -3.8 25.2 88 -5.5 22.1
01:45 1013 29.91 842 24.86 -3.7 25.3 88 -5.5 22.1
01:50 1013 29.91 842 24.86 -3.7 25.3 88 -5.5 22.1
01:55 1013 29.91 842 24.86 -3.8 25.2 88 -5.5 22
02:00 1013 29.91 842 24.86 -3.8 25.2 88 -5.5 22
02:05 1013 29.91 842 24.86 -3.8 25.2 88 -5.6 22
02:10 1013 29.91 842 24.86 -3.8 25.2 88 -5.5 22
02:15 1013 29.91 842 24.86 -3.7 25.3 88 -5.5 22.1
02:20 1013 29.91 842 24.86 -3.7 25.3 88 -5.5 22.2
02:25 1013 29.91 842 24.86 -3.7 25.4 87 -5.5 22.2
02:30 1013 29.91 842 24.86 -3.7 25.4 87 -5.5 22.1
02:35 1013 29.91 842 24.86 -3.8 25.3 87 -5.6 21.8
02:40 1013 29.91 842 24.86 -3.7 25.3 87 -5.7 21.8
02:45 1013 29.91 842 24.86 -3.9 25 86 -5.8 21.5
02:50 1013 29.91 842 24.86 -4 24.7 85 -6.2 20.8
02:55 1013 29.91 842 24.86 -4 24.8 86 -6.1 21
03:00 1013 29.91 842 24.86 -4.1 24.7 86 -6.1 21
03:05 1013 29.91 842 24.86 -4.1 24.6 85 -6.2 20.8
03:10 1013 29.91 842 24.86 -4.2 24.4 86 -6.3 20.7
03:15 1013 29.91 842 24.86 -4.2 24.4 86 -6.2 20.8
03:20 1013 29.91 842 24.86 -4.2 24.4 85 -6.3 20.6
03:25 1013 29.91 842 24.86 -4.3 24.3 85 -6.4 20.5
03:30 1013 29.91 842 24.86 -4.3 24.3 85 -6.5 20.3
03:35 1013 29.91 842 24.86 -4.3 24.3 84 -6.6 20.2
03:40 1013 29.91 842 24.86 -4.3 24.3 84 -6.6 20.2
03:45 1013 29.91 842 24.86 -4.3 24.2 85 -6.4 20.4
03:50 1013 29.91 842 24.86 -4.3 24.2 86 -6.4 20.5
03:55 1013 29.91 842 24.86 -4.3 24.2 86 -6.3 20.6
04:00 1013 29.91 842 24.86 -4.3 24.2 87 -6.3 20.7
04:05 1013 29.91 842 24.86 -4.4 24 87 -6.2 20.8
04:10 1013 29.91 842 24.86 -4.6 23.8 88 -6.2 20.8
04:15 1013 29.91 842 24.86 -4.5 23.8 88 -6.2 20.8
04:20 1013 29.91 842 24.86 -4.5 23.9 86 -6.4 20.4
04:25 1013 29.91 842 24.86 -4.3 24.2 85 -6.4 20.4
04:30 1013 29.91 842 24.86 -4.3 24.2 85 -6.4 20.5
04:35 1013 29.91 842 24.86 -4.4 24.1 86 -6.4 20.4
04:40 1013 29.91 842 24.86 -4.4 24 86 -6.4 20.4
04:45 1013 29.91 842 24.86 -4.5 24 86 -6.5 20.4
04:50 1013 29.91 842 24.86 -4.5 23.9 86 -6.5 20.4
04:55 1013 29.91 842 24.86 -4.5 23.9 86 -6.4 20.4
05:00 1013 29.91 842 24.86 -4.5 23.9 87 -6.4 20.5
05:05 1013 29.91 842 24.86 -4.6 23.7 88 -6.3 20.6
05:10 1013 29.91 842 24.86 -4.7 23.6 88 -6.3 20.6
05:15 1013 29.91 842 24.86 -4.7 23.6 88 -6.4 20.5
05:20 1013 29.91 842 24.86 -4.7 23.6 88 -6.3 20.6
05:25 1013 29.91 842 24.86 -4.7 23.6 88 -6.3 20.6
05:30 1013 29.91 842 24.86 -4.7 23.5 88 -6.4 20.5
05:35 1013 29.91 843 24.89 -4.7 23.5 88 -6.4 20.4
05:40 1013 29.91 843 24.89 -4.7 23.5 88 -6.4 20.4
05:45 1013 29.91 842 24.86 -4.7 23.5 87 -6.5 20.3
05:50 1013 29.91 842 24.86 -4.7 23.5 87 -6.5 20.2
05:55 1013 29.91 842 24.86 -4.7 23.5 87 -6.6 20.2
06:00 1013 29.91 842 24.86 -4.7 23.5 87 -6.6 20.1
06:05 1013 29.91 843 24.89 -4.7 23.5 86 -6.6 20
06:10 1013 29.91 843 24.89 -4.7 23.5 86 -6.7 20
06:15 1013 29.91 843 24.89 -4.7 23.5 86 -6.7 19.9
06:20 1014 29.94 843 24.89 -4.7 23.5 86 -6.7 19.9
06:25 1014 29.94 843 24.89 -4.7 23.5 85 -6.8 19.8
06:30 1014 29.94 843 24.89 -4.7 23.5 85 -6.8 19.7
06:35 1014 29.94 843 24.89 -4.8 23.4 85 -6.9 19.6
06:40 1014 29.94 843 24.89 -4.8 23.3 85 -6.9 19.5
06:45 1014 29.94 843 24.89 -4.9 23.3 86 -6.8 19.7
06:50 1014 29.94 843 24.89 -4.9 23.2 86 -6.9 19.6
06:55 1014 29.94 843 24.89 -4.8 23.4 85 -6.9 19.6
07:00 1014 29.94 843 24.89 -4.7 23.5 85 -6.9 19.7
07:05 1014 29.94 843 24.89 -4.8 23.4 85 -6.9 19.5
07:10 1014 29.94 843 24.89 -4.9 23.3 85 -7 19.5
07:15 1014 29.94 843 24.89 -4.9 23.2 85 -7 19.4
07:20 1014 29.94 843 24.89 -4.9 23.1 85 -7 19.4
07:25 1014 29.94 843 24.89 -4.9 23.1 86 -7 19.4
07:30 1014 29.94 843 24.89 -5 23.1 87 -6.9 19.6
07:35 1014 29.94 843 24.89 -5.1 22.9 87 -6.9 19.7
07:40 1014 29.94 843 24.89 -5.1 22.9 87 -6.9 19.6
07:45 1014 29.94 843 24.89 -5.1 22.9 88 -6.8 19.7
07:50 1014 29.94 843 24.89 -5.1 22.8 88 -6.8 19.7
07:55 1014 29.94 843 24.89 -5.1 22.8 88 -6.8 19.8
08:00 1014 29.94 843 24.89 -5.1 22.8 88 -6.8 19.8
08:05 1014 29.94 843 24.89 -5.1 22.9 88 -6.7 19.9
08:10 1014 29.94 843 24.89 -5 22.9 88 -6.8 19.8
08:15 1014 29.94 843 24.89 -5 23 88 -6.7 19.9
08:20 1014 29.94 843 24.89 -5 23.1 88 -6.7 20
08:25 1014 29.94 843 24.89 -4.9 23.1 88 -6.7 20
08:30 1014 29.94 843 24.89 -4.9 23.1 88 -6.7 20
08:35 1014 29.94 843 24.89 -4.9 23.2 88 -6.6 20.1
08:40 1014 29.94 843 24.89 -4.8 23.3 88 -6.5 20.2
08:45 1014 29.94 843 24.89 -4.8 23.3 88 -6.6 20.1
08:50 1014 29.94 843 24.89 -4.8 23.4 87 -6.6 20.1
08:55 1014 29.94 843 24.89 -4.8 23.4 87 -6.6 20.1
09:00 1014 29.94 843 24.89 -4.6 23.6 87 -6.6 20.2
09:05 1014 29.94 843 24.89 -4.6 23.6 87 -6.5 20.3
09:10 1014 29.94 843 24.89 -4.6 23.6 87 -6.5 20.3
09:15 1014 29.94 843 24.89 -4.6 23.7 87 -6.5 20.3
09:20 1014 29.94 843 24.89 -4.6 23.8 87 -6.4 20.4
09:25 1014 29.94 843 24.89 -4.5 23.8 87 -6.4 20.5
09:30 1014 29.94 843 24.89 -4.5 24 87 -6.4 20.5
09:35 1014 29.94 843 24.89 -4.4 24 86 -6.4 20.5
09:40 1014 29.94 844 24.92 -4.4 24.1 87 -6.3 20.6
09:45 1014 29.94 844 24.92 -4.3 24.2 86 -6.3 20.6
09:50 1014 29.94 844 24.92 -4.3 24.3 86 -6.2 20.8
09:55 1015 29.97 844 24.92 -4.2 24.5 85 -6.2 20.8
10:00 1014 29.94 844 24.92 -4.2 24.5 86 -6.2 20.8
10:05 1014 29.94 844 24.92 -4.1 24.6 85 -6.2 20.8
10:10 1015 29.97 844 24.92 -4.1 24.6 86 -6.1 20.9
10:15 1015 29.97 844 24.92 -4 24.8 85 -6.2 20.9
10:20 1014 29.94 844 24.92 -4 24.8 85 -6.2 20.8
10:25 1014 29.94 844 24.92 -4 24.8 84 -6.3 20.7
10:30 1014 29.94 844 24.92 -3.9 24.9 83 -6.4 20.6
10:35 1014 29.94 844 24.92 -3.8 25.1 84 -6.2 20.8
10:40 1014 29.94 843 24.89 -3.8 25.1 83 -6.3 20.7
10:45 1014 29.94 844 24.92 -3.8 25.1 83 -6.3 20.7
10:50 1014 29.94 844 24.92 -3.7 25.3 82 -6.3 20.7
10:55 1014 29.94 844 24.92 -3.5 25.6 81 -6.3 20.6
11:00 1015 29.97 844 24.92 -3.5 25.7 81 -6.3 20.6
11:05 1015 29.97 844 24.92 -3.4 25.9 82 -6 21.2
11:10 1015 29.97 844 24.92 -3.2 26.2 82 -5.8 21.5
11:15 1015 29.97 844 24.92 -3.2 26.2 82 -5.9 21.3
11:20 1015 29.97 844 24.92 -3.3 26.1 82 -5.9 21.4
11:25 1015 29.97 844 24.92 -3.2 26.3 84 -5.5 22.2
11:30 1015 29.97 844 24.92 -3.2 26.3 82 -5.8 21.6
11:35 1014 29.94 844 24.92 -3.3 26.1 81 -6.1 21.1
11:40 1014 29.94 843 24.89 -3.3 26.1 81 -6.1 21
11:45 1014 29.94 843 24.89 -3.3 26 81 -6.2 20.9
11:50 1014 29.94 843 24.89 -3.3 26 81 -6.2 20.9
11:55 1014 29.94 843 24.89 -3.2 26.2 80 -6.2 20.8
12:00 1014 29.94 843 24.89 -3.3 26.1 80 -6.3 20.7
12:05 1014 29.94 843 24.89 -3.1 26.4 79 -6.2 20.8
12:10 1014 29.94 843 24.89 -3 26.6 79 -6.1 21
12:15 1014 29.94 843 24.89 -3 26.6 80 -6 21.3
12:20 1014 29.94 843 24.89 -3.1 26.4 81 -6 21.2
12:25 1014 29.94 843 24.89 -3.1 26.4 79 -6.2 20.9
12:30 1014 29.94 843 24.89 -2.9 26.7 80 -6 21.3
12:35 1014 29.94 843 24.89 -2.8 26.9 80 -5.9 21.5
12:40 1014 29.94 843 24.89 -2.9 26.8 82 -5.5 22.1
12:45 1014 29.94 843 24.89 -2.9 26.7 80 -5.9 21.5
12:50 1014 29.94 843 24.89 -2.9 26.9 80 -5.9 21.4
12:55 1014 29.94 843 24.89 -2.9 26.9 79 -5.9 21.3
13:00 1014 29.94 843 24.89 -2.9 26.8 78 -6.1 20.9
13:05 1014 29.94 843 24.89 -3 26.6 79 -6.1 21
13:10 1014 29.94 843 24.89 -3 26.6 80 -6 21.2
13:15 1014 29.94 843 24.89 -3 26.5 81 -5.9 21.4
13:20 1014 29.94 843 24.89 -3 26.6 81 -5.8 21.5
13:25 1014 29.94 843 24.89 -3.2 26.3 81 -5.9 21.3
13:30 1014 29.94 843 24.89 -3.3 26.1 82 -6 21.2
13:35 1014 29.94 843 24.89 -3.2 26.3 82 -5.8 21.5
13:40 1014 29.94 843 24.89 -3.2 26.2 83 -5.8 21.6
13:45 1014 29.94 843 24.89 -3.3 26 82 -5.9 21.4
13:50 1014 29.94 843 24.89 -3.3 26 83 -5.8 21.5
13:55 1014 29.94 843 24.89 -3.3 26 83 -5.8 21.6
14:00 1014 29.94 843 24.89 -3.3 26 83 -5.8 21.6
14:05 1014 29.94 843 24.89 -3.4 25.9 83 -5.9 21.4
14:10 1014 29.94 843 24.89 -3.4 25.8 83 -5.9 21.3
14:15 1014 29.94 843 24.89 -3.5 25.7 84 -5.8 21.5
14:20 1014 29.94 843 24.89 -3.4 25.8 84 -5.8 21.6
14:25 1014 29.94 843 24.89 -3.4 25.8 83 -5.9 21.4
14:30 1014 29.94 843 24.89 -3.5 25.7 84 -5.9 21.4
14:35 1014 29.94 843 24.89 -3.5 25.6 83 -6 21.3
14:40 1014 29.94 843 24.89 -3.5 25.7 83 -6.1 21.1
14:45 1014 29.94 843 24.89 -3.5 25.8 82 -6 21.1
14:50 1014 29.94 843 24.89 -3.4 25.8 82 -6.1 21
14:55 1014 29.94 843 24.89 -3.4 25.9 81 -6.1 21
15:00 1014 29.94 843 24.89 -3.3 26.1 80 -6.2 20.8
15:05 1014 29.94 843 24.89 -3.3 26.1 80 -6.3 20.7
15:10 1014 29.94 843 24.89 -3.3 26.1 80 -6.3 20.7
15:15 1014 29.94 843 24.89 -3.3 26.1 80 -6.3 20.7
15:20 1014 29.94 843 24.89 -3.4 26 80 -6.3 20.6
15:25 1014 29.94 843 24.89 -3.3 26 80 -6.2 20.8
15:30 1014 29.94 843 24.89 -3.3 26 80 -6.4 20.6
15:35 1014 29.94 843 24.89 -3.4 25.9 80 -6.4 20.6
15:40 1014 29.94 843 24.89 -3.4 25.8 80 -6.5 20.4
15:45 1014 29.94 843 24.89 -3.4 25.9 79 -6.5 20.4
15:50 1014 29.94 843 24.89 -3.4 25.9 79 -6.4 20.4
15:55 1014 29.94 843 24.89 -3.5 25.8 80 -6.5 20.4
16:00 1014 29.94 843 24.89 -3.4 25.8 80 -6.4 20.4
16:05 1014 29.94 843 24.89 -3.5 25.7 80 -6.5 20.3
16:10 1014 29.94 843 24.89 -3.6 25.6 80 -6.6 20.2
16:15 1014 29.94 843 24.89 -3.6 25.6 80 -6.6 20.2
16:20 1014 29.94 843 24.89 -3.6 25.6 80 -6.6 20.2
16:25 1014 29.94 843 24.89 -3.6 25.5 80 -6.5 20.3
16:30 1014 29.94 843 24.89 -3.6 25.4 80 -6.6 20.1
16:35 1014 29.94 843 24.89 -3.7 25.4 80 -6.6 20.1
16:40 1014 29.94 843 24.89 -3.7 25.4 79 -6.7 19.9
16:45 1014 29.94 843 24.89 -3.7 25.3 80 -6.6 20.1
16:50 1014 29.94 843 24.89 -3.7 25.3 81 -6.5 20.3
16:55 1014 29.94 843 24.89 -3.8 25.2 81 -6.6 20.1
17:00 1014 29.94 843 24.89 -3.8 25.2 81 -6.6 20.1
17:05 1014 29.94 843 24.89 -3.8 25.1 81 -6.6 20.1
17:10 1014 29.94 843 24.89 -3.9 25 82 -6.6 20.2
17:15 1014 29.94 843 24.89 -3.9 25 82 -6.5 20.3
17:20 1014 29.94 843 24.89 -3.9 24.9 82 -6.5 20.2
17:25 1014 29.94 843 24.89 -4 24.9 82 -6.6 20.1
17:30 1014 29.94 843 24.89 -3.9 24.9 81 -6.7 20
17:35 1014 29.94 843 24.89 -3.9 25 80 -6.9 19.6
17:40 1014 29.94 843 24.89 -3.9 25.1 80 -6.8 19.8
17:45 1014 29.94 843 24.89 -3.8 25.1 80 -6.8 19.8
17:50 1014 29.94 843 24.89 -3.8 25.1 80 -6.8 19.7
17:55 1014 29.94 843 24.89 -3.8 25.1 80 -6.7 19.9
18:00 1014 29.94 843 24.89 -3.8 25.1 80 -6.7 19.9
18:05 1014 29.94 843 24.89 -3.8 25.1 80 -6.7 19.9
18:10 1014 29.94 843 24.89 -3.8 25.1 80 -6.7 19.9
18:15 1014 29.94 843 24.89 -3.8 25.1 81 -6.6 20
18:20 1014 29.94 843 24.89 -3.8 25.1 80 -6.9 19.6
18:25 1014 29.94 843 24.89 -3.8 25.1 80 -6.8 19.7
18:30 1013 29.91 843 24.89 -3.8 25.1 79 -6.9 19.6
18:35 1013 29.91 843 24.89 -3.9 25 79 -6.9 19.6
18:40 1014 29.94 843 24.89 -3.8 25.1 79 -6.9 19.6
18:45 1014 29.94 843 24.89 -3.9 25.1 80 -6.9 19.6
18:50 1014 29.94 843 24.89 -3.9 25 80 -6.9 19.6
18:55 1014 29.94 843 24.89 -3.9 25 80 -6.9 19.6
19:00 1014 29.94 843 24.89 -3.9 25 80 -6.9 19.6
19:05 1014 29.94 843 24.89 -3.9 25 81 -6.8 19.8
19:10 1014 29.94 843 24.89 -3.9 24.9 80 -6.9 19.6
19:15 1014 29.94 843 24.89 -3.9 25 80 -6.9 19.6
19:20 1014 29.94 843 24.89 -3.9 24.9 80 -7 19.5
19:25 1014 29.94 843 24.89 -3.9 24.9 80 -7 19.5
19:30 1014 29.94 843 24.89 -3.9 25 79 -7 19.4
19:35 1014 29.94 843 24.89 -3.9 24.9 80 -7 19.5
19:40 1014 29.94 843 24.89 -3.9 24.9 79 -7 19.4
19:45 1014 29.94 843 24.89 -3.9 24.9 80 -6.9 19.6
19:50 1014 29.94 843 24.89 -3.9 24.9 80 -6.9 19.5
19:55 1014 29.94 843 24.89 -4 24.9 80 -6.9 19.5
20:00 1014 29.94 843 24.89 -4 24.8 81 -6.8 19.7
20:05 1014 29.94 843 24.89 -4 24.8 81 -6.8 19.7
20:10 1014 29.94 843 24.89 -4 24.8 81 -6.9 19.6
20:15 1014 29.94 843 24.89 -4 24.8 81 -6.8 19.7
20:20 1014 29.94 843 24.89 -4 24.8 81 -6.8 19.8
20:25 1014 29.94 843 24.89 -4 24.8 81 -6.9 19.7
20:30 1014 29.94 843 24.89 -4 24.8 82 -6.7 19.9
20:35 1014 29.94 843 24.89 -4 24.7 82 -6.7 20
20:40 1014 29.94 843 24.89 -4 24.7 82 -6.6 20.1
20:45 1014 29.94 843 24.89 -4.1 24.6 84 -6.4 20.4
20:50 1014 29.94 843 24.89 -4.2 24.5 84 -6.5 20.3
20:55 1014 29.94 843 24.89 -4.2 24.5 84 -6.5 20.3
21:00 1014 29.94 843 24.89 -4.2 24.5 83 -6.6 20.2
21:05 1014 29.94 843 24.89 -4.1 24.5 83 -6.6 20.2
21:10 1014 29.94 843 24.89 -4.2 24.5 84 -6.5 20.3
21:15 1014 29.94 843 24.89 -4.2 24.4 85 -6.4 20.5
21:20 1014 29.94 843 24.89 -4.3 24.2 86 -6.3 20.7
21:25 1014 29.94 843 24.89 -4.3 24.2 85 -6.4 20.5
21:30 1014 29.94 843 24.89 -4.3 24.3 86 -6.4 20.5
21:35 1014 29.94 843 24.89 -4.3 24.3 84 -6.5 20.2
21:40 1014 29.94 843 24.89 -4.2 24.4 85 -6.4 20.5
21:45 1014 29.94 843 24.89 -4.2 24.4 85 -6.3 20.6
21:50 1014 29.94 843 24.89 -4.2 24.5 85 -6.4 20.5
21:55 1014 29.94 843 24.89 -4.1 24.5 85 -6.3 20.6
22:00 1014 29.94 843 24.89 -4.1 24.6 84 -6.4 20.4
22:05 1014 29.94 844 24.92 -4 24.8 83 -6.5 20.4
22:10 1014 29.94 844 24.92 -3.9 24.9 82 -6.5 20.3
22:15 1014 29.94 843 24.89 -3.9 25 82 -6.5 20.2
22:20 1014 29.94 844 24.92 -3.9 25.1 82 -6.5 20.3
22:25 1014 29.94 844 24.92 -3.8 25.1 82 -6.5 20.3
22:30 1015 29.97 844 24.92 -3.8 25.1 82 -6.4 20.5
22:35 1015 29.97 844 24.92 -3.8 25.2 81 -6.6 20
22:40 1014 29.94 844 24.92 -3.8 25.2 81 -6.6 20.1
22:45 1015 29.97 844 24.92 -3.8 25.2 81 -6.6 20.1
22:50 1015 29.97 844 24.92 -3.7 25.3 79 -6.8 19.7
22:55 1015 29.97 844 24.92 -3.7 25.3 79 -6.8 19.8
23:00 1015 29.97 844 24.92 -3.7 25.3 80 -6.7 20
23:05 1015 29.97 844 24.92 -3.7 25.3 79 -6.8 19.7
23:10 1015 29.97 844 24.92 -3.8 25.2 80 -6.8 19.8
23:15 1015 29.97 844 24.92 -3.8 25.2 80 -6.8 19.7
23:20 1015 29.97 844 24.92 -3.8 25.2 80 -6.8 19.8
23:25 1015 29.97 844 24.92 -3.8 25.1 80 -6.8 19.7
23:30 1015 29.97 844 24.92 -3.8 25.1 80 -6.8 19.8
23:35 1014 29.94 844 24.92 -3.9 25 81 -6.6 20
23:40 1014 29.94 844 24.92 -4 24.8 83 -6.5 20.2
23:45 1014 29.94 844 24.92 -4.1 24.7 83 -6.5 20.3
23:50 1014 29.94 844 24.92 -4.1 24.5 85 -6.3 20.7
23:55 1014 29.94 844 24.92 -4.2 24.4 86 -6.2 20.8
24:00 1014 29.94 844 24.92 -4.3 24.3 87 -6.1 21